Regional Weather Roundup
Issued by NWS

Home | Current Version | Previous Version | Text Only | Print | Product List | Glossary On
Versions: 1 2 3 4 5 6 7 8 9 10 11 12 13 14 15 16 17 18 19 20 21 22 23 24 25 26 27 28 29 30 31 32 33 34 35 36 37 38 39 40 41 42 43 44 45 46 47 48 49 50
000
ASUS46 KPQR 221010
RWROR

OREGON REGIONAL WEATHER ROUNDUP
NATIONAL WEATHER SERVICE PORTLAND OR
300 AM PDT TUE JUL 22 2014

NOTE: "FAIR" INDICATES FEW OR NO CLOUDS BELOW 12,000 FEET WITH
NO SIGNIFICANT WEATHER AND/OR OBSTRUCTIONS TO VISIBILITY.

ORZ001>013-221100-
NORTHWEST OREGON


CITY           SKY/WX    TMP DP  RH WIND       PRES   REMARKS
ASTORIA        CLOUDY    54  52  93 CALM      30.03R
NEWPORT        CLOUDY    55  54  94 CALM      30.07F
PORTLAND       CLOUDY    67  55  65 NW3       30.01R
VANCOUVER WA   CLOUDY    66  54  65 CALM      30.00S
SCAPPOOSE      CLOUDY    62  56  80 CALM      30.00R
HILLSBORO      CLOUDY    64  55  72 CALM      30.00S
AURORA         LGT RAIN  62  56  80 SW5       30.03R
MCMINNVILLE    CLOUDY    65  48  54 S9        30.02R
SALEM          CLOUDY    65  53  65 S7        30.01S
CORVALLIS      CLOUDY    63  48  59 NW5       30.04S
EUGENE         CLOUDY    60  55  83 S6        30.03F
$$

ORZ021-028-221100-
SOUTHWEST OREGON


CITY           SKY/WX    TMP DP  RH WIND       PRES   REMARKS
NORTH BEND     CLOUDY    57  55  94 W6        30.06S
BROOKINGS      CLOUDY    55  55 100 S5        30.05F FOG
ROSEBURG       CLOUDY    63  56  78 CALM      30.03S
SEXTON SUMMIT  MOCLDY    58  40  51 S6        30.09S
MEDFORD        MOCLDY    70  50  49 NW3       30.00S
$$

ORZ009-041-221100-
COLUMBIA GORGE


CITY           SKY/WX    TMP DP  RH WIND       PRES   REMARKS
TROUTDALE      LGT RAIN  68  55  63 S8        30.00R
THE DALLES     CLOUDY    71  49  45 W8G17     29.97S
$$

ORZ029>031-042>050-061>064-221100-
EASTERN OREGON


CITY           SKY/WX    TMP DP  RH WIND       PRES   REMARKS
REDMOND        CLOUDY    62  50  64 SE9       30.05S
BEND           CLOUDY    63  50  63 S5        30.09S
KLAMATH FALLS  MOCLDY    56  53  90 SE6       30.13F
LAKEVIEW       CLEAR     50  45  81 SE9       30.21S
HERMISTON      MOCLDY    71  40  32 SW7       29.95S
PENDLETON      CLOUDY    69  38  32 NW3       29.98S
JOHN DAY       PTSUNNY   62  57  86 SE7       30.10S
MEACHAM        LGT RAIN  54  51  90 CALM      30.09S
LA GRANDE      CLOUDY    63  45  51 N6        30.05S
BAKER CITY     MOCLDY    59  55  87 SW6       30.09S
BURNS          CLEAR     51  46  83 E5        30.15R
ROME             N/A     53  51  93 SW5       30.16R
ONTARIO        MOCLDY    67  57  70 S3        30.06S
$$


USA.gov is the U.S. government's official web portal to all federal, state and local government web resources and services.